Weather History for Valentine, NE

Change the Weather History Date:

Friday, March 8, 2013

  Actual Average Record
Temperature  
Mean Temperature 39 °F 34 °F  
Max Temperature 51 °F 47 °F 77 °F (1986)
Min Temperature 27 °F 21 °F -16 °F (1996)
Degree Days  
Heating Degree Days 26 31  
Month to date heating degree days 226 260  
Since 1 July heating degree days 5179 5496  
Cooling Degree Days 0 0  
Month to date cooling degree days 0 0  
Year to date cooling degree days 0 0  
Moisture  
Dew Point 28 °F    
Average Humidity 73    
Maximum Humidity 100    
Minimum Humidity 46    
Precipitation  
Precipitation 0.00 in 0.03 in 0.92 in (1893)
Month to date precipitation 0.01 0.21  
Year to date precipitation 1.24 0.95  
Snow  
Snow 0.00 in 0.30 in 3.30 in (1948)
Month to date snowfall 0.3 1.9  
Since 1 July snowfall 27.9 24.0  
Snow Depth 0.00 in    
Sea Level Pressure  
Sea Level Pressure 30.01 in    
Wind  
Wind Speed 8 mph (NE)    
Max Wind Speed 20 mph    
Max Gust Speed 23 mph    
Visibility 6 miles    
Events Fog    
T = Trace of Precipitation, MM = Missing Value Source: NWS Daily Summary

Daily Weather History Graph

Daily Weather History Graph

Search for Another Location

Airport:

Trip Planner

Search our weather history database for the weather conditions in past years. The results will help you decide how hot, cold, wet, or windy it might be!

Date:

Astronomy

Mar. 08, 2013 Rise Set
Actual Time 7:05 AM CST 6:40 PM CST
Civil Twilight 6:37 AM CST 7:08 PM CST
Nautical Twilight 6:04 AM CST 7:41 PM CST
Astronomical Twilight 5:31 AM CST 8:14 PM CST
Moon 4:55 AM CST (3/8) 3:34 PM CST (3/8)
Length of Visible Light 12h 31m
Length of Day
11h 34m
Waning Crescent, 11% of the Moon is Illuminated
Mar 8
Waning Crescent
Mar 11
New
Mar 19
First Quarter
Mar 27
Full
Apr 2
Last Quarter

Hourly Weather History & Observations

Time (CST) Temp. Windchill Dew Point Humidity Pressure Visibility Wind Dir Wind Speed Gust Speed Precip Events Conditions
12:52 AM 34.0 °F 31.0 °F 26.1 °F 73% 30.13 in 10.0 mi NE 3.5 mph - N/A   Clear
1:52 AM 32.0 °F - 25.0 °F 75% 30.14 in 10.0 mi Calm Calm - N/A   Clear
2:52 AM 30.9 °F 26.2 °F 26.1 °F 82% 30.14 in 10.0 mi NE 4.6 mph - N/A   Clear
3:52 AM 30.0 °F 23.2 °F 26.1 °F 85% 30.10 in 9.0 mi NNE 6.9 mph - N/A   Clear
4:52 AM 28.9 °F 22.8 °F 25.0 °F 85% 30.12 in 8.0 mi NNE 5.8 mph - N/A   Clear
5:52 AM 28.4 °F 22.2 °F 24.8 °F 86% 30.06 in 7.0 mi NNE 5.8 mph - N/A   Clear
6:52 AM 27.0 °F 17.3 °F 24.1 °F 89% 30.09 in 5.0 mi NE 10.4 mph - N/A   Clear
7:04 AM 26.6 °F 15.7 °F 24.8 °F 93% 30.04 in 4.0 mi NE 12.7 mph - N/A   Scattered Clouds
7:08 AM 26.6 °F 16.2 °F 24.8 °F 93% 30.04 in 2.5 mi NE 11.5 mph - N/A   Mostly Cloudy
7:12 AM 26.6 °F 16.8 °F 24.8 °F 93% 30.04 in 1.8 mi NE 10.4 mph - N/A   Mostly Cloudy
7:28 AM 26.6 °F 17.5 °F 26.6 °F 100% 30.04 in 0.8 mi ENE 9.2 mph - N/A   Overcast
7:52 AM 27.0 °F 19.5 °F 26.1 °F 96% 30.12 in 0.2 mi East 6.9 mph - N/A Fog Light Freezing Fog
8:52 AM 28.0 °F 21.7 °F 27.0 °F 96% 30.14 in 0.5 mi East 5.8 mph - N/A Fog Light Freezing Fog
9:33 AM 28.4 °F 23.3 °F 28.4 °F 100% 30.05 in 1.2 mi East 4.6 mph - N/A   Overcast
9:43 AM 28.4 °F 24.6 °F 28.4 °F 100% 30.05 in 1.0 mi ENE 3.5 mph - N/A   Overcast
9:52 AM 30.0 °F 25.2 °F 28.0 °F 92% 30.12 in 1.2 mi East 4.6 mph - N/A   Overcast
10:23 AM 30.2 °F 26.7 °F 28.4 °F 93% 30.04 in 2.5 mi North 3.5 mph - N/A   Overcast
10:38 AM 30.2 °F 26.7 °F 28.4 °F 93% 30.04 in 3.0 mi NE 3.5 mph - N/A   Overcast
11:02 AM 35.6 °F - 28.4 °F 75% 30.04 in 6.0 mi Calm Calm - N/A   Haze
11:52 AM 39.9 °F 35.8 °F 30.0 °F 68% 30.08 in 9.0 mi ENE 5.8 mph - N/A   Clear
12:52 PM 45.0 °F 39.7 °F 30.9 °F 58% 30.02 in 10.0 mi NE 10.4 mph - N/A   Clear
1:52 PM 48.9 °F - 30.9 °F 50% 29.97 in 10.0 mi East 16.1 mph 21.9 mph N/A   Clear
2:52 PM 50.0 °F - 30.0 °F 46% 29.93 in 10.0 mi East 18.4 mph - N/A   Clear
3:52 PM 50.0 °F - 30.9 °F 48% 29.91 in 10.0 mi East 16.1 mph - N/A   Clear
4:52 PM 46.9 °F - 32.0 °F 56% 29.92 in 10.0 mi NNE 12.7 mph - N/A   Clear
5:52 PM 41.0 °F 34.7 °F 30.0 °F 65% 29.94 in 9.0 mi NNE 10.4 mph - N/A   Clear
6:52 PM 43.0 °F 37.2 °F 30.9 °F 62% 29.92 in 10.0 mi East 10.4 mph - N/A   Overcast
7:52 PM 39.0 °F 34.8 °F 30.9 °F 73% 29.93 in 8.0 mi NNE 5.8 mph - N/A   Clear
8:52 PM 37.0 °F 31.6 °F 30.9 °F 79% 29.92 in 7.0 mi NNE 6.9 mph - N/A   Mostly Cloudy
9:52 PM 35.1 °F 27.9 °F 30.0 °F 82% 29.91 in 6.0 mi NNE 9.2 mph - N/A   Haze
10:37 PM 33.8 °F 27.7 °F 30.2 °F 87% 29.83 in 5.0 mi North 6.9 mph - N/A   Overcast
10:52 PM 34.0 °F 28.8 °F 30.0 °F 85% 29.89 in 5.0 mi North 5.8 mph - N/A   Overcast
11:52 PM 34.0 °F 26.6 °F 30.0 °F 85% 29.86 in 5.0 mi NNE 9.2 mph - N/A   Overcast